Air Resources Laboratory banner image
Air Resources Laboratory web site National Oceanic and Atmospheric Administration (NOAA)

ga zone


GAZ044-118-TXZ119-213-NCZ071-DCZ001-MDZ014-506-PAZ021-071-NJZ106-
NYZ176-178-MAZ106-OHZ011-021-055-MIZ076-KYZ091-ILZ014-INZ047-
MNZ060-ONZ431-110700-

...Gateway Observations for Savannah International...

CITY           SKY/WX    TMP DP  RH WIND       PRES   REMARKS
Savannah Arpt  MOCLDY    73  69  87 CALM      30.15S
6HR MIN TEMP:  71; 6HR MAX TEMP:  85; 6HR PCP: TRACE;

Atlanta        MOCLDY    72  70  93 S5        30.16F
6HR MIN TEMP:  72; 6HR MAX TEMP:  82; 6HR PCP:  0.77;

Charlotte      RAIN      73  69  87 W7        30.12F FOG
6HR MIN TEMP:  73; 6HR MAX TEMP:  82; 6HR PCP: TRACE;

Dallas DFW     MOCLDY    76  73  91 SE5       30.05R
6HR MIN TEMP:  76; 6HR MAX TEMP:  80; 6HR PCP:  0.12;

Houston Bush   CLOUDY    75  74  96 S3        30.04R
6HR MIN TEMP:  71; 6HR MAX TEMP:  76; 6HR PCP:  0.52;

Wash National  CLOUDY    74  71  91 CALM      29.98F
6HR MIN TEMP:  73; 6HR MAX TEMP:  75; 6HR PCP:  0.05;

Wash Dulles    CLOUDY    71  70  96 CALM      29.98F
6HR MIN TEMP:  71; 6HR MAX TEMP:  73; 6HR PCP:  0.04;

Baltimore      MOCLDY    74  71  91 W9        29.97F
6HR MIN TEMP:  73; 6HR MAX TEMP:  74; 6HR PCP:  0.11;

Philadelphia   CLOUDY    80  75  84 SW10      29.94F
6HR MIN TEMP:  80; 6HR MAX TEMP:  88;

Newark         MOCLDY    77  69  76 CALM      29.94F
6HR MIN TEMP:  76; 6HR MAX TEMP:  80;

Laguardia      MOCLDY    78  68  71 S3        29.94F
6HR MIN TEMP:  77; 6HR MAX TEMP:  80;

J F K          CLOUDY    75  73  93 S6        29.96S
6HR MIN TEMP:  75; 6HR MAX TEMP:  76;

Boston         CLOUDY    67  64  90 E3        29.98F
6HR MIN TEMP:  65; 6HR MAX TEMP:  67;

Pittsburg      PTCLDY    64  63  96 W3        30.06F
6HR MIN TEMP:  64; 6HR MAX TEMP:  71;

Akron          CLEAR     65  59  81 CALM      30.08F
6HR MIN TEMP:  62; 6HR MAX TEMP:  77;

Cleveland      CLEAR     63  59  87 SW3       30.05F
6HR MIN TEMP:  63; 6HR MAX TEMP:  76;

Cincinnati     CLEAR     69  67  93 N3        30.10S
6HR MIN TEMP:  69; 6HR MAX TEMP:  79;

Columbus       CLEAR     67  66  97 CALM      30.08F
6HR MIN TEMP:  66; 6HR MAX TEMP:  75;

Detroit        PTCLDY    70  61  73 W6        30.07F
6HR MIN TEMP:  70; 6HR MAX TEMP:  79;

Chicago O'Hare PTCLDY    73  65  75 W6        30.11S
6HR MIN TEMP:  72; 6HR MAX TEMP:  82;

Minneapolis    CLEAR     70  55  59 NE6       30.21R
6HR MIN TEMP:  70; 6HR MAX TEMP:  84;

Indianapolis   CLEAR     66  61  84 NW6       30.12F
6HR MIN TEMP:  66; 6HR MAX TEMP:  79;

Toronto Canada PTCLDY    70  59  68 W6        29.98F


GAZ044-118-TXZ119-213-NCZ071-DCZ001-MDZ014-506-PAZ021-071-NJZ106-
NYZ176-178-MAZ106-OHZ011-021-055-MIZ076-KYZ091-ILZ014-INZ047-
MNZ060-ONZ431-110700-

...Gateway Observations for Savannah International...

CITY           SKY/WX    TMP DP  RH WIND       PRES   REMARKS
Savannah Arpt  MOCLDY    73  69  87 CALM      30.15S
6HR MIN TEMP:  71; 6HR MAX TEMP:  85; 6HR PCP: TRACE;

Atlanta        MOCLDY    72  70  93 S5        30.16F
6HR MIN TEMP:  72; 6HR MAX TEMP:  82; 6HR PCP:  0.77;

Charlotte      RAIN      73  69  87 W7        30.12F FOG
6HR MIN TEMP:  73; 6HR MAX TEMP:  82; 6HR PCP: TRACE;

Dallas DFW     MOCLDY    76  73  91 SE5       30.05R
6HR MIN TEMP:  76; 6HR MAX TEMP:  80; 6HR PCP:  0.12;

Houston Bush   CLOUDY    75  74  96 S3        30.04R
6HR MIN TEMP:  71; 6HR MAX TEMP:  76; 6HR PCP:  0.52;

Wash National  CLOUDY    74  71  91 CALM      29.98F
6HR MIN TEMP:  73; 6HR MAX TEMP:  75; 6HR PCP:  0.05;

Wash Dulles    CLOUDY    71  70  96 CALM      29.98F
6HR MIN TEMP:  71; 6HR MAX TEMP:  73; 6HR PCP:  0.04;

Baltimore      MOCLDY    74  71  91 W9        29.97F
6HR MIN TEMP:  73; 6HR MAX TEMP:  74; 6HR PCP:  0.11;

Philadelphia   CLOUDY    80  75  84 SW10      29.94F
6HR MIN TEMP:  80; 6HR MAX TEMP:  88;

Newark         MOCLDY    77  69  76 CALM      29.94F
6HR MIN TEMP:  76; 6HR MAX TEMP:  80;

Laguardia      MOCLDY    78  68  71 S3        29.94F
6HR MIN TEMP:  77; 6HR MAX TEMP:  80;

J F K          CLOUDY    75  73  93 S6        29.96S
6HR MIN TEMP:  75; 6HR MAX TEMP:  76;

Boston         CLOUDY    67  64  90 E3        29.98F
6HR MIN TEMP:  65; 6HR MAX TEMP:  67;

Pittsburg      PTCLDY    64  63  96 W3        30.06F
6HR MIN TEMP:  64; 6HR MAX TEMP:  71;

Akron          CLEAR     65  59  81 CALM      30.08F
6HR MIN TEMP:  62; 6HR MAX TEMP:  77;

Cleveland      CLEAR     63  59  87 SW3       30.05F
6HR MIN TEMP:  63; 6HR MAX TEMP:  76;

Cincinnati     CLEAR     69  67  93 N3        30.10S
6HR MIN TEMP:  69; 6HR MAX TEMP:  79;

Columbus       CLEAR     67  66  97 CALM      30.08F
6HR MIN TEMP:  66; 6HR MAX TEMP:  75;

Detroit        PTCLDY    70  61  73 W6        30.07F
6HR MIN TEMP:  70; 6HR MAX TEMP:  79;

Chicago O'Hare PTCLDY    73  65  75 W6        30.11S
6HR MIN TEMP:  72; 6HR MAX TEMP:  82;

Minneapolis    CLEAR     70  55  59 NE6       30.21R
6HR MIN TEMP:  70; 6HR MAX TEMP:  84;

Indianapolis   CLEAR     66  61  84 NW6       30.12F
6HR MIN TEMP:  66; 6HR MAX TEMP:  79;

Toronto Canada PTCLDY    70  59  68 W6        29.98F